Total_Precipitation_Accumulation
0.61 0.73 0.85 1.04 1.18 1.34 1.50 1.75 2.03 2.19 2.27 2.35 2.32 2.22 2.38 2.54 2.45 2.33 2.43 2.60 2.75 2.90 2.90 2.72 2.57 2.47 2.34 2.08 1.92 1.83 1.69 1.50 1.34 1.35 1.39 1.27 1.10 1.04 0.90 0.76 0.69 0.64 0.58
0.64 0.73 0.83 1.01 1.13 1.32 1.43 1.63 1.92 2.13 2.12 2.10 2.15 2.11 2.16 2.30 2.43 2.38 2.36 2.46 2.66 2.88 3.08 2.95 2.76 2.62 2.51 2.37 2.13 1.97 1.90 1.79 1.56 1.45 1.49 1.53 1.46 1.21 1.00 0.88 0.76 0.70 0.66
0.62 0.69 0.78 0.93 1.09 1.30 1.42 1.45 1.71 2.09 2.18 2.18 2.33 2.35 2.40 2.45 2.51 2.47 2.41 2.42 2.48 2.61 2.72 2.78 2.66 2.65 2.58 2.49 2.32 2.12 2.01 2.00 1.82 1.54 1.62 1.69 1.53 1.23 1.05 0.95 0.86 0.78 0.72
0.61 0.69 0.75 0.91 1.02 1.22 1.50 1.57 1.63 1.94 2.23 2.29 2.31 2.27 2.26 2.24 2.25 2.23 2.25 2.38 2.52 2.58 2.59 2.65 2.66 2.48 2.39 2.33 2.29 2.21 2.07 2.07 2.05 1.80 1.51 1.39 1.33 1.37 1.26 1.04 0.98 0.97 0.88
0.65 0.71 0.77 0.92 1.06 1.25 1.51 1.69 1.77 1.84 2.09 2.21 2.18 2.17 2.15 2.13 2.22 2.24 2.22 2.30 2.47 2.64 2.71 2.63 2.63 2.62 2.43 2.25 2.19 2.19 2.15 2.09 2.03 1.89 1.69 1.44 1.21 1.16 1.31 1.17 1.04 1.10 1.07
0.68 0.73 0.81 0.98 1.15 1.31 1.52 1.71 1.87 1.80 1.91 2.21 2.24 2.08 2.02 2.01 2.10 2.22 2.29 2.33 2.39 2.47 2.59 2.64 2.54 2.50 2.48 2.39 2.20 2.15 2.18 2.11 2.03 1.92 1.79 1.65 1.51 1.28 1.25 1.20 0.99 0.99 1.00
0.66 0.74 0.83 1.00 1.09 1.23 1.40 1.61 1.77 1.80 1.82 2.04 2.22 2.11 1.95 1.93 1.92 2.02 2.11 2.18 2.23 2.27 2.33 2.43 2.45 2.37 2.33 2.35 2.31 2.19 2.15 2.13 2.10 1.99 1.84 1.68 1.55 1.42 1.43 1.46 1.26 1.05 0.93
0.55 0.67 0.77 0.92 1.04 1.08 1.21 1.42 1.64 1.69 1.71 1.89 2.15 2.20 2.07 2.04 1.94 1.93 2.00 2.04 2.02 2.00 2.03 2.13 2.20 2.16 2.10 2.15 2.25 2.22 2.10 2.07 2.09 2.02 1.94 1.84 1.62 1.52 1.58 1.66 1.73 1.57 1.15
0.52 0.60 0.71 0.78 0.86 0.99 1.09 1.24 1.50 1.67 1.68 1.73 1.97 2.25 2.25 2.15 2.07 1.97 1.99 2.04 2.00 1.97 1.99 2.01 2.03 1.98 1.94 1.95 2.02 2.07 1.99 1.96 1.96 1.96 1.96 1.96 1.79 1.65 1.57 1.60 1.81 2.14 1.90
0.54 0.60 0.66 0.70 0.78 0.90 1.00 1.11 1.34 1.57 1.67 1.69 1.79 2.00 2.26 2.23 2.16 2.16 2.05 2.04 2.03 2.01 2.00 2.00 1.98 1.92 1.83 1.86 1.88 1.83 1.76 1.80 1.81 1.84 1.90 1.91 1.81 1.71 1.62 1.64 1.65 1.78 2.01
0.51 0.57 0.60 0.69 0.76 0.86 1.00 1.09 1.21 1.39 1.55 1.59 1.63 1.74 1.96 2.18 2.22 2.16 2.05 1.96 1.99 1.98 1.91 1.88 1.92 1.92 1.84 1.78 1.83 1.78 1.67 1.69 1.69 1.69 1.72 1.73 1.72 1.73 1.64 1.63 1.63 1.59 1.69
0.47 0.53 0.58 0.67 0.72 0.82 0.96 1.05 1.13 1.28 1.42 1.53 1.58 1.66 1.73 1.90 2.14 2.07 1.92 1.80 1.82 1.90 1.89 1.80 1.81 1.86 1.88 1.84 1.81 1.76 1.64 1.59 1.59 1.62 1.61 1.61 1.64 1.68 1.61 1.58 1.54 1.46 1.41
0.47 0.53 0.60 0.63 0.69 0.80 0.88 0.95 1.05 1.18 1.32 1.46 1.56 1.58 1.63 1.72 1.83 1.93 1.87 1.75 1.69 1.74 1.82 1.83 1.79 1.80 1.83 1.82 1.75 1.72 1.64 1.54 1.51 1.52 1.54 1.51 1.60 1.69 1.63 1.59 1.52 1.40 1.31
0.48 0.52 0.58 0.61 0.66 0.74 0.86 0.90 1.01 1.13 1.20 1.34 1.44 1.47 1.49 1.53 1.58 1.67 1.85 1.84 1.74 1.66 1.62 1.63 1.70 1.79 1.94 1.98 1.93 1.94 1.77 1.62 1.54 1.47 1.42 1.44 1.57 1.64 1.71 1.77 1.64 1.53 1.52
0.45 0.51 0.58 0.63 0.68 0.76 0.86 0.94 0.99 1.03 1.06 1.19 1.30 1.39 1.44 1.53 1.55 1.50 1.63 1.80 1.77 1.64 1.55 1.53 1.59 1.70 2.06 2.45 2.46 2.35 2.03 1.72 1.54 1.44 1.40 1.45 1.61 1.70 1.90 2.08 1.98 1.94 2.02
0.48 0.50 0.57 0.62 0.70 0.78 0.89 1.02 1.05 1.06 1.03 1.09 1.22 1.34 1.43 1.58 1.59 1.52 1.56 1.69 1.77 1.71 1.60 1.53 1.54 1.60 1.89 2.62 2.77 2.38 1.88 1.66 1.53 1.47 1.40 1.40 1.57 1.61 1.75 1.98 2.09 2.17 2.31
0.51 0.51 0.57 0.64 0.73 0.80 0.90 1.04 1.08 1.07 1.06 1.08 1.16 1.27 1.35 1.53 1.60 1.57 1.62 1.66 1.73 1.81 1.78 1.62 1.49 1.46 1.66 2.38 2.57 2.28 1.79 1.59 1.50 1.43 1.42 1.42 1.47 1.56 1.52 1.67 1.76 1.81 1.98
0.52 0.52 0.58 0.65 0.70 0.78 0.84 0.93 0.99 1.03 1.11 1.14 1.18 1.25 1.29 1.37 1.53 1.61 1.61 1.62 1.64 1.70 1.74 1.68 1.57 1.45 1.52 2.12 2.33 2.17 1.79 1.63 1.52 1.42 1.40 1.40 1.42 1.51 1.74 1.70 1.64 1.54 1.57
0.55 0.57 0.62 0.66 0.68 0.72 0.80 0.90 0.95 0.98 1.12 1.22 1.23 1.22 1.19 1.26 1.40 1.51 1.58 1.60 1.61 1.58 1.59 1.56 1.53 1.49 1.48 1.87 2.17 2.01 1.68 1.63 1.53 1.40 1.38 1.41 1.39 1.68 1.98 1.86 1.70 1.50 1.39
0.53 0.59 0.62 0.61 0.64 0.70 0.76 0.88 0.95 0.94 1.09 1.20 1.25 1.18 1.10 1.10 1.15 1.28 1.46 1.55 1.56 1.50 1.51 1.51 1.47 1.39 1.35 1.65 1.96 1.97 1.63 1.55 1.47 1.39 1.36 1.52 1.62 1.84 1.98 1.79 1.75 1.84 1.57
0.51 0.55 0.57 0.57 0.67 0.72 0.73 0.84 0.93 1.01 1.08 1.16 1.22 1.14 1.07 1.08 1.10 1.17 1.36 1.49 1.55 1.51 1.45 1.41 1.39 1.32 1.31 1.46 1.68 1.92 1.71 1.55 1.48 1.43 1.37 1.36 1.66 1.78 1.87 1.88 1.81 2.05 1.92
0.44 0.47 0.52 0.56 0.63 0.70 0.75 0.83 0.93 1.02 1.10 1.16 1.17 1.15 1.13 1.11 1.13 1.18 1.32 1.47 1.54 1.58 1.52 1.42 1.37 1.33 1.31 1.42 1.57 1.77 1.81 1.69 1.47 1.37 1.23 1.29 1.58 1.68 1.80 1.79 1.88 2.01 1.93
0.42 0.44 0.50 0.53 0.60 0.67 0.75 0.87 0.95 0.97 1.05 1.12 1.17 1.18 1.18 1.16 1.18 1.23 1.32 1.46 1.54 1.58 1.56 1.47 1.38 1.33 1.26 1.42 1.70 1.63 1.67 1.72 1.50 1.35 1.46 1.54 1.66 1.68 1.58 1.66 1.77 1.75 1.66
0.41 0.43 0.49 0.52 0.60 0.66 0.71 0.81 0.90 0.91 0.92 0.99 1.10 1.12 1.16 1.22 1.27 1.30 1.32 1.42 1.54 1.60 1.50 1.44 1.35 1.27 1.25 1.46 1.66 1.60 1.58 1.66 1.62 1.55 1.62 1.71 1.69 1.58 1.47 1.51 1.52 1.45 1.54
0.46 0.48 0.51 0.54 0.62 0.68 0.74 0.81 0.83 0.83 0.86 0.90 1.05 1.15 1.18 1.23 1.31 1.34 1.36 1.43 1.44 1.61 1.59 1.45 1.37 1.38 1.46 1.62 1.79 1.75 1.66 1.67 1.65 1.72 1.80 1.75 1.65 1.61 1.48 1.36 1.29 1.32 1.49
0.51 0.51 0.53 0.58 0.64 0.71 0.80 0.83 0.80 0.80 0.85 0.91 0.99 1.11 1.20 1.21 1.21 1.23 1.30 1.47 1.50 1.55 1.51 1.44 1.41 1.33 1.49 1.64 1.71 1.81 1.82 1.85 1.92 1.94 1.84 1.62 1.46 1.42 1.37 1.35 1.31 1.25 1.28